Location: Tucson
(32.2217°N, 110.9265°W)
Time: 19:13:08
(UTC-07:00)

N. Korean satellite - Pass Details

Date: 28 September 2021
Orbit: 450 x 495 km, 97.3° (Epoch: 22 October)

Event Time Altitude Azimuth Distance (km) Brightness Sun altitude
Rises 04:36:05 0° 37° (NE) 2,543 11.0 -21.8°
Reaches altitude 10° 04:39:12 10° 68° (ENE) 1,669 10.4 -21.2°
Maximum altitude 04:40:48 13° 94° (E) 1,518 10.1 -20.9°
Drops below altitude 10° 04:42:24 10° 121° (ESE) 1,673 9.9 -20.5°
Sets 04:45:31 0° 151° (SSE) 2,555 10.5 -19.9°
